Location: Chertrain
(45.8489°N, 2.0183°E)
Time: 00:16:50
(UTC+00:00)

Daily predictions for brighter satellites

Satellite Brightness Start Highest point End
(mag) Time Altitude Azimuth Time Altitude Azimuth Time Altitude Azimuth
SL-16 R/B 4.3 00:02:19 12° ESE 00:03:48 13° E 00:06:27 10° ENE
Cosmos 2322 Rocket 4.4 00:01:50 10° W 00:05:54 20° NW 00:09:59 10° N
USA 306 3.6 00:07:12 41° E 00:07:12 41° E 00:10:16 10° ENE
Lacrosse 5 3.7 00:07:00 18° ESE 00:07:00 18° ESE 00:09:45 10° ENE
Cosmos 1980 4.1 00:06:08 41° SE 00:07:11 46° ESE 00:12:33 10° NE
Cosmos 371 Rocket 3.6 00:06:52 48° SE 00:07:22 50° ESE 00:12:05 10° NNE
Cosmos 1844 Rocket 4.3 00:05:22 10° WNW 00:09:02 18° W 00:09:35 18° WSW
Cosmos 2322 4.2 00:07:22 33° WSW 00:09:46 56° WNW 00:15:25 10° NNE
USA 307 3.7 00:11:14 39° E 00:11:14 39° E 00:14:17 10° ENE
Cosmos 2333 Rocket 3.2 00:07:16 23° WSW 00:10:16 41° NW 00:15:39 10° NNE
Cosmos 1461 3.3 00:06:34 10° NW 00:10:09 50° W 00:10:09 50° W
Cosmos 220 Rocket 4.0 00:11:12 61° W 00:11:32 64° WNW 00:15:44 10° NNE
ATLAS CENTAUR R/B 3.1 00:10:36 10° WNW 00:13:49 25° W 00:13:49 25° W
Cosmos 1709 Rocket 4.4 00:10:47 10° N 00:16:47 53° ENE 00:19:32 31° SE
ASTEX 1 3.4 00:12:12 10° N 00:17:06 72° W 00:18:02 56° SW
USA 267 3.2 00:17:02 32° SSE 00:20:17 69° SW 00:26:50 10° NW
Cosmos 1386 Rocket 4.3 00:16:13 10° N 00:22:16 85° W 00:24:14 46° S
NOSS 2-2 (C) 4.3 00:17:53 10° NW 00:23:00 90° ENE 00:26:47 28° SE
Cosmos 1674 Rocket 3.4 00:23:08 68° WSW 00:23:31 73° W 00:27:50 10° N
USA 229 DEB 3.9 00:18:37 10° NW 00:26:01 82° SW 00:30:40 27° SSE
USA 229 3.9 00:18:43 10° NW 00:26:07 82° SW 00:30:48 27° SSE
S3M 4.0 00:24:09 44° S 00:26:23 89° ESE 00:32:47 10° N
Cosmos 2221 Rocket 4.2 00:28:33 41° W 00:29:08 44° WNW 00:33:23 10° N
Cosmos 2219 Rocket 3.2 00:26:28 23° WSW 00:29:21 38° NW 00:34:34 10° NNE
Cosmos 1553 Rocket 4.3 00:28:15 38° SW 00:30:24 56° WNW 00:36:30 10° N
Cosmos 2150 Rocket 3.9 00:32:32 54° SSW 00:33:45 90° WSW 00:38:57 10° NNE
NOSS 2-2 (E) 4.4 00:29:14 10° NW 00:34:30 66° SW 00:37:14 37° SSE
Cosmos 494 Rocket 4.1 00:31:06 10° NNW 00:36:06 55° WSW 00:36:50 50° SW
Cosmos 1048 Rocket 4.2 00:31:44 10° NNW 00:36:43 50° WSW 00:37:21 47° SW
Meteor 1-16 Rocket 4.4 00:31:50 10° NNW 00:37:43 65° W 00:39:24 45° SSW
Cosmos 1378 Rocket 3.9 00:37:53 50° WSW 00:38:27 54° WNW 00:42:49 10° N
CZ-2D R/B 3.7 00:34:16 10° NE 00:38:40 25° E 00:40:53 19° SE
USA 308 2.6 00:40:45 77° S 00:40:53 79° SE 00:45:04 10° ENE
Cosmos 1455 Rocket 4.0 00:36:39 10° N 00:40:56 43° ENE 00:42:27 31° ESE
USA 290 4.1 00:43:29 22° WNW 00:43:31 22° WNW 00:46:10 10° N
Cosmos 1300 2.6 00:40:01 10° N 00:43:49 79° E 00:43:56 77° ESE
Cosmos 1125 Rocket 3.5 00:43:32 47° SW 00:44:59 71° WNW 00:50:12 10° NNE
NOSS 0 Rocket 4.0 00:45:00 38° SW 00:47:32 75° WNW 00:53:49 10° NNE
Cosmos 1238 Rocket 4.5 00:49:21 10° NW 00:50:31 16° WNW 00:50:31 16° WNW
NOSS 3-1 (A) 4.3 00:45:13 10° NW 00:52:35 51° WSW 00:56:19 32° S
Meteor 2-5 Rocket 4.4 00:50:14 30° SSE 00:52:39 48° E 00:58:03 10° NNE
SL-14 R/B 3.4 00:53:24 55° W 00:53:34 56° W 00:57:24 10° N
ERBS 2.9 00:55:13 48° NE 00:55:13 48° NE 00:57:32 10° NE
CZ-4C R/B 3.5 00:49:47 10° NW 00:56:44 42° WSW 00:59:24 33° SSW
Cosmos 1975 Rocket 3.3 00:56:40 47° SSE 00:57:41 61° E 01:02:05 10° NNE
Cosmos 2237 Rocket 2.2 00:56:44 41° SW 00:58:47 78° WNW 01:04:31 10° NNE
Cosmos 1025 Rocket 3.5 01:00:08 41° SE 01:01:10 52° E 01:05:22 10° NNE
COSMOS 2428 4.1 00:59:51 18° WSW 01:03:12 31° NW 01:08:15 10° N
Cosmos 405 Rocket 4.1 01:03:21 25° W 01:03:40 26° WNW 01:06:53 10° NNW
USA 305 3.1 01:02:25 41° W 01:03:41 65° NNW 01:07:51 10° NE
Resurs 1-4 Rocket 2.9 00:59:43 10° NNE 01:04:44 43° E 01:07:01 28° SSE
SME Rocket 3.3 01:03:27 40° SE 01:04:54 73° ENE 01:10:03 10° NNW
Cosmos 1437 Rocket 4.1 01:06:07 10° NW 01:08:52 25° W 01:08:52 25° W
Cosmos 332 Rocket 3.7 01:08:19 49° SSW 01:09:38 83° WNW 01:14:27 10° NNE
CZ-4 R/B 4.5 01:07:03 10° NNE 01:11:31 45° E 01:13:13 31° SSE
Cosmos 1626 4.4 01:11:57 14° WNW 01:12:24 14° WNW 01:14:28 10° NW
Cosmos 1943 Rocket 2.6 01:08:31 10° NNW 01:14:11 64° ENE 01:19:23 12° SE
Lacrosse 5 rocket 2.2 01:14:37 32° SE 01:14:37 32° SE 01:18:13 10° ENE
IDEFIX/ARIANE 42P 4.3 01:13:15 10° NE 01:17:35 25° E 01:21:05 13° SE
GP-B 3.2 01:14:05 10° N 01:18:28 60° W 01:19:29 46° SW
ADEOS II 3.5 01:13:54 10° NE 01:18:31 30° E 01:21:40 17° SE
Cosmos 2297 4.3 01:14:17 10° NNW 01:19:58 56° ENE 01:25:35 10° SE
Cosmos 1953 3.8 01:17:10 10° NW 01:20:22 24° W 01:20:22 24° W
Thor Agena Rocket 3.6 01:16:54 10° NNE 01:22:12 76° WNW 01:24:18 38° SSW
Cosmos 1544 Rocket 3.7 01:23:04 10° N 01:27:30 68° E 01:29:32 31° SSE
Cosmos 2278 Rocket 3.1 01:24:55 10° NW 01:29:45 30° WSW 01:30:40 28° WSW
MOS 1 Rocket 3.8 01:33:16 18° SE 01:36:17 51° ENE 01:40:29 10° N
NPP 3.8 01:33:18 10° NNE 01:38:41 69° ESE 01:41:35 28° S
Cosmos 2369 Rocket 3.3 01:37:51 10° NNW 01:43:13 44° ENE 01:48:31 10° SE
USA 306 3.9 01:42:53 16° W 01:45:53 41° NNW 01:49:52 10° NE
SL-16 R/B 2.2 01:44:11 31° SSW 01:47:01 88° ESE 01:52:45 10° NNE
Lacrosse 5 1.8 01:46:10 31° SW 01:48:40 89° NW 01:53:48 10° NE
Meteor 1-28 Rocket 4.1 01:46:34 16° SE 01:49:19 47° ENE 01:52:55 10° N
USA 307 3.9 01:46:57 17° W 01:49:55 43° NNW 01:53:56 10° NE
SL-16 R/B 2.5 01:45:54 18° SSE 01:50:45 83° WSW 01:57:02 10° NNW
Cosmos 2074 Rocket 4.0 01:48:24 10° N 01:54:43 77° W 01:59:10 20° S
Cosmos 2084 Rocket 3.9 01:56:07 27° W 01:57:47 44° NW 02:01:26 10° NNE
Cosmos 1269 Rocket 4.4 01:53:13 10° NNW 01:58:14 45° WSW 02:00:38 27° SSW
AQUA 3.8 01:57:25 10° NNE 02:02:13 86° E 02:04:57 26° SSW
USA 267 4.5 02:04:19 19° WSW 02:04:19 19° WSW 02:08:29 10° W
Cosmos 1455 2.3 02:03:38 10° NNW 02:07:15 53° W 02:08:35 33° SSW
Meteor 1-24 Rocket 4.2 02:07:38 24° SW 02:10:39 47° WNW 02:15:54 10° N
Cosmos 2184 Rocket 4.1 02:04:36 10° NNW 02:10:44 60° W 02:15:07 19° SSW
COSMOS 2455 2.9 02:08:44 23° SSW 02:12:36 79° ESE 02:18:39 10° NE
Cosmos 1610 Rocket 4.4 02:07:29 10° N 02:13:41 85° W 02:19:27 12° S
Cosmos 2228 3.3 02:10:18 10° N 02:14:40 68° E 02:18:53 10° SSE
Cosmos 1271 Rocket 2.6 02:11:31 10° NNW 02:15:22 83° W 02:18:01 19° S
Iridium 82 4.5 02:16:22 29° SSW 02:18:04 70° W 02:21:35 10° N
CZ-2D R/B 2.6 02:13:47 10° N 02:18:56 48° WNW 02:22:12 21° SW
USA 308 4.4 02:17:00 10° W 02:20:49 33° NNW 02:24:39 10° NE
Cosmos 1140 Rocket 4.4 02:17:20 10° NNW 02:22:29 51° ENE 02:27:34 10° SE
MSX 4.0 02:20:19 10° NNE 02:26:07 75° ESE 02:31:10 14° S
Cosmos 1536 Rocket 3.8 02:25:14 23° SSW 02:27:46 53° WNW 02:32:05 10° N
Cosmos 292 Rocket 3.8 02:25:27 22° SSW 02:28:34 74° WNW 02:33:23 10° NNE
SAR-Lupe-2 4.2 02:27:18 10° N 02:30:43 42° WNW 02:32:32 23° SW
NOSS 3-3 (A) 4.2 02:30:11 17° SSW 02:34:29 60° ESE 02:40:47 10° NE
NOSS 3-3 (C) 4.2 02:30:17 17° SSW 02:34:36 59° ESE 02:40:52 10° NE
Genesis I 4.0 02:36:18 10° NNW 02:40:20 58° NE 02:44:16 10° SE
Cosmos 1943 3.5 02:36:10 14° S 02:41:05 66° ESE 02:46:44 10° NNE
Cosmos 2237 Rocket 4.3 02:40:12 10° W 02:43:49 17° NW 02:47:29 10° N
Resurs 1-4 Rocket 3.3 02:39:54 10° N 02:44:22 29° WNW 02:48:05 14° WSW
Meteor 2-1 Rocket 4.3 02:38:42 10° N 02:44:30 88° E 02:50:08 10° S
DEBRIS 4.1 02:32:21 10° WNW 02:44:32 73° N 02:48:01 10° E
Nadezhda 1 Rocket 4.3 02:39:52 16° SSW 02:44:50 52° WNW 02:50:58 10° N
Helios 1B rocket 3.4 02:43:45 10° NNE 02:47:40 44° E 02:51:33 10° S
Cosmos 1328 3.9 02:44:33 11° S 02:48:16 76° E 02:52:16 10° NNE
Cosmos 1606 Rocket 3.5 02:46:10 10° NNW 02:50:35 76° W 02:54:56 10° S
ARIANE 5 R/B 4.3 02:48:24 10° NE 02:52:46 28° E 02:57:04 10° SSE
Lacrosse 5 rocket 2.2 02:50:08 12° W 02:53:35 42° NNW 02:57:31 10° NE
CBERS-1 4.3 02:51:11 10° NNE 02:56:18 70° ESE 03:01:24 10° S
IDEFIX/ARIANE 42P 3.1 02:52:19 10° N 02:57:22 47° WNW 03:01:53 13° SW
Cosmos 1943 Rocket 3.5 02:53:15 10° NW 02:57:24 21° W 03:00:49 13° SW
ADEOS II 2.8 02:53:24 10° N 02:58:16 39° WNW 03:02:36 13° SW
FENGYUN 3A 4.5 02:54:22 10° NNE 02:59:37 50° E 03:04:50 10° S
Cosmos 1703 4.3 02:59:56 14° SW 03:02:44 32° WNW 03:06:18 10° N
Cosmos 2056 Rocket 4.1 02:59:01 10° S 03:04:03 55° ESE 03:09:12 10° NNE
Cosmos 1825 4.5 03:01:32 10° SE 03:04:30 23° E 03:07:30 10° NE
Cosmos 2263 4.2 02:58:59 10° NNW 03:04:36 64° WSW 03:10:15 10° SSE
Helios 1A 4.0 03:01:51 12° SSW 03:04:59 27° W 03:08:38 10° NW
EO 1 Del DPAF 4.4 03:04:52 10° NNW 03:07:47 25° WNW 03:10:23 12° WSW
IRS-1D 3.8 03:04:15 10° N 03:09:31 61° WNW 03:14:41 10° SSW
BREEZE-M DEB (TANK) 3.9 03:02:34 10° W 03:10:40 55° N 03:13:36 10° ENE
Cosmos 2366 rocket 4.0 03:05:32 10° N 03:11:42 85° W 03:17:54 10° S
Lacrosse 4 Rocket 3.3 03:08:40 10° SSE 03:12:14 26° ESE 03:15:45 10° NE
Cosmos 2251 Rocket 4.1 03:07:37 10° NW 03:12:27 38° WSW 03:17:17 10° SSW
ALOS 3.0 03:09:52 10° NNE 03:14:27 54° E 03:19:01 10° S
Cosmos 2341 Rocket 4.2 03:09:03 10° NNW 03:15:17 57° W 03:21:31 10° SSW
Cosmos 1190 Rocket 4.1 03:11:39 10° NNW 03:16:58 87° WSW 03:22:17 10° SSE
SL-8 Rocket 4.1 03:12:02 10° NNW 03:18:18 65° W 03:24:31 10° S
Cosmos 1892 2.8 03:20:03 10° S 03:23:49 76° E 03:27:35 10° NNE
Cosmos 1408 2.6 03:20:24 10° S 03:24:02 89° E 03:27:40 10° N
Cosmos 2369 Rocket 2.9 03:22:12 10° NW 03:27:03 31° WSW 03:31:53 10° SSW
Cosmos 1892 Rocket 3.9 03:23:06 10° SSW 03:27:28 53° WNW 03:31:53 10° N
Cosmos 1726 Rocket 4.2 03:25:34 10° NNW 03:29:40 38° W 03:33:42 10° SSW
PAYLOAD A 4.1 03:25:03 10° NNE 03:29:47 73° ESE 03:34:37 10° S
CZ-2C R/B 2.7 03:24:47 10° NNE 03:29:56 75° ESE 03:34:54 10° S
Cosmos 1656 Rocket 4.2 03:25:12 10° NW 03:30:06 35° WSW 03:34:58 10° S
SL-16 R/B 4.0 03:27:56 10° W 03:31:56 19° NW 03:35:59 10° N
Lacrosse 5 3.4 03:27:41 10° W 03:32:12 30° NNW 03:36:43 10° NE
MOS 1-B Rocket 4.0 03:28:49 10° S 03:34:16 53° W 03:39:57 10° NNW
SL-16 R/B 4.2 03:32:11 10° WSW 03:35:16 14° W 03:38:22 10° WNW
Cosmos 676 Rocket 4.2 03:30:20 10° NNW 03:35:42 83° ENE 03:41:03 10° SSE
